Dewpoint
23 20 18 20 21 22 27 30 31 34 35 36 36 36 37 38 40 40 40 40 41 42 45 46 48 49 50 51 50 51 51 51 50 49 48 47 47 48 48 49 51 51 51 52
22 19 18 25 30 30 31 31 32 34 35 35 35 34 36 38 38 40 40 39 41 43 43 45 47 48 49 49 49 49 50 50 49 49 49 49 49 48 49 49 51 51 51 51
21 19 23 24 28 28 27 30 32 31 34 34 33 32 33 36 37 38 39 41 41 41 41 42 42 45 47 47 48 47 48 49 50 50 49 49 49 48 46 45 44 43 43 43
21 22 23 23 21 21 20 29 32 32 31 28 34 27 32 33 35 36 36 37 38 38 38 38 37 40 42 43 45 45 46 45 44 46 44 43 39 37 37 38 38 38 40 39
20 21 24 27 26 22 23 34 33 32 32 31 30 29 30 33 31 33 36 36 36 37 36 34 34 35 35 37 38 39 39 38 38 39 39 36 36 35 35 35 37 38 38 38
22 23 24 24 30 32 32 32 31 31 30 26 31 28 30 31 32 33 35 34 34 33 34 34 34 35 33 31 34 34 34 31 34 35 36 37 36 35 33 33 32 32 33 34
20 20 22 26 27 32 29 28 25 24 26 27 33 30 31 33 34 34 32 32 32 33 33 33 31 28 30 30 32 32 30 29 32 34 35 34 34 35 34 33 32 33 33 34
20 17 29 33 31 29 29 25 27 19 23 28 30 31 30 34 35 35 32 32 31 29 29 27 28 28 27 30 32 32 29 29 31 33 33 35 35 33 34 34 34 35 34 34
25 27 33 34 35 33 32 30 31 28 27 26 28 33 31 32 29 31 33 30 28 27 26 25 27 29 30 31 32 33 31 30 32 32 34 36 36 37 36 36 36 35 36 34
27 29 32 34 33 34 33 33 28 28 24 22 25 27 29 29 27 34 31 28 28 27 26 27 27 29 29 31 32 33 33 32 33 36 37 36 37 36 36 36 36 37 38 37
28 30 30 31 32 32 32 32 31 30 30 26 24 29 32 32 35 33 30 29 29 29 29 27 27 27 27 28 29 32 33 32 36 38 37 37 36 35 34 34 36 37 38 38
33 33 29 31 35 36 35 32 32 34 27 26 27 28 32 32 32 29 29 29 30 31 29 27 27 27 25 26 27 30 34 34 37 36 36 35 35 34 32 34 36 36 36 35
34 31 29 29 31 34 34 34 30 28 30 25 25 27 33 30 30 31 30 31 31 31 27 26 26 25 25 26 28 30 32 36 36 35 35 34 33 33 33 33 34 38 36 36
38 33 27 23 25 32 32 32 30 25 31 24 26 30 34 35 33 32 33 33 31 28 25 24 25 25 25 27 28 29 32 37 38 37 35 34 34 33 34 35 35 36 37 36
35 31 32 32 32 31 31 31 28 24 24 25 28 31 33 34 35 33 32 32 27 23 22 22 23 24 25 27 28 30 33 37 39 38 36 36 34 32 33 37 35 36 35 35
35 32 31 30 31 31 32 32 33 33 32 32 32 32 35 36 37 36 33 29 24 22 21 22 22 22 25 27 28 31 33 38 39 38 36 33 31 32 34 35 36 34 32 33
34 33 32 29 29 29 27 33 32 33 34 32 28 33 36 35 36 37 31 27 24 22 22 22 22 24 27 29 30 32 37 39 38 36 35 30 30 30 33 34 34 33 32 33
35 33 32 31 30 22 34 37 35 32 32 32 32 34 36 37 38 35 30 26 24 23 23 23 24 27 28 30 31 35 38 38 35 35 33 30 30 30 32 31 31 31 33 33
37 34 31 29 26 32 35 34 33 29 28 31 33 35 37 39 37 34 37 27 25 25 25 24 25 29 30 29 31 35 38 37 35 32 31 30 32 31 32 31 31 30 32 32
34 34 33 29 24 22 29 35 37 36 26 30 35 37 39 39 33 33 35 27 27 26 25 24 27 30 32 31 32 34 38 36 35 33 31 30 31 33 34 33 32 31 32 32
29 32 29 29 26 29 33 37 38 25 27 34 38 39 40 40 41 40 29 30 28 26 24 25 26 30 33 33 33 33 38 36 36 34 33 31 33 34 34 34 33 31 31 30
29 28 27 28 26 25 37 38 30 33 37 39 40 41 42 42 32 31 30 29 27 26 26 27 27 30 33 34 33 31 36 38 37 35 34 33 34 36 36 35 33 32 31 30
30 33 32 30 31 35 39 38 39 41 41 41 42 42 43 34 31 32 31 30 29 27 28 28 29 31 32 33 35 31 34 38 37 36 35 34 34 35 36 35 34 31 30 29
37 38 35 33 37 38 40 41 42 42 42 42 42 40 34 32 33 33 33 31 29 29 30 30 31 31 33 34 34 35 33 37 37 36 36 36 35 34 36 35 34 33 33 30
37 36 34 36 39 40 40 41 42 41 42 40 34 33 32 33 32 33 32 31 30 31 34 33 32 33 33 34 34 34 34 34 36 36 36 36 36 34 35 35 35 34 34 34
38 35 36 35 40 40 40 42 39 38 36 36 35 36 36 34 34 34 33 36 37 37 37 37 38 37 36 36 36 36 35 33 33 36 35 35 35 35 34 35 34 34 34 34
Lifted_Index
5 5 5 4 4 4 3 3 4 5 5 5 5 5 4 4 4 4 5 5 5 4 4 3 3 3 3 3 3 2 2 2 2 3 3 4 4 4 4 4 3 4 4 4
5 5 4 4 4 4 4 4 4 5 5 5 5 5 4 4 4 5 5 5 4 4 4 3 3 3 3 3 3 2 2 2 2 3 3 4 4 4 4 4 4 5 5 5
4 4 4 4 4 4 4 4 4 5 5 5 5 4 4 4 5 5 5 4 4 4 4 4 3 3 3 3 3 3 2 2 3 4 4 5 5 5 5 6 7 7 8 8
4 4 4 4 5 5 4 5 5 5 5 4 4 3 4 4 4 5 5 4 4 4 4 4 4 4 3 4 4 4 4 4 5 6 7 7 8 8 9 9 10 10 11 11
4 4 5 5 5 5 5 5 5 5 4 4 3 3 3 4 4 4 4 4 4 4 4 4 4 4 4 5 6 6 7 7 8 9 10 10 11 11 12 12 12 12 12 12
4 5 5 5 5 5 5 5 4 4 4 3 3 3 3 4 4 4 4 4 5 5 4 4 5 5 6 7 8 8 9 10 10 11 11 12 12 12 13 13 13 12 12 12
4 4 5 5 5 5 5 4 3 2 2 2 3 3 3 4 4 4 5 5 5 5 5 5 6 6 7 8 9 10 10 11 11 11 12 12 12 12 13 12 12 12 12 12
3 4 5 5 5 5 4 4 2 1 1 2 3 3 3 4 4 5 5 5 4 5 5 6 7 7 8 9 10 11 11 11 11 11 11 12 12 12 12 12 12 12 13 13
3 4 5 5 5 5 4 4 3 3 2 2 2 3 3 4 5 5 5 4 4 5 6 7 8 8 9 10 11 11 11 11 10 10 10 11 11 11 11 12 12 13 13 14
4 4 5 5 5 5 4 4 4 3 2 1 2 3 3 4 5 5 5 4 4 5 7 8 8 8 9 10 11 11 10 9 9 9 10 11 11 11 12 13 13 13 14 13
6 5 5 5 5 5 4 4 4 3 2 2 2 2 4 4 5 5 4 4 5 6 7 8 8 9 10 11 11 10 8 8 9 10 10 11 12 13 14 14 14 14 14 13
6 5 4 4 5 5 4 4 4 3 3 2 2 3 4 5 4 4 4 4 5 6 7 8 9 10 10 11 10 9 8 8 9 10 11 12 13 14 15 15 15 14 13 12
6 5 4 4 4 4 4 4 4 3 3 2 2 3 4 5 4 4 4 5 6 7 8 9 10 10 11 11 10 8 8 9 10 11 12 13 14 15 16 15 14 12 12 11
5 5 4 3 3 4 4 3 3 3 2 2 3 3 4 4 4 4 4 5 6 7 8 10 10 11 11 11 9 8 8 10 11 12 12 13 15 16 15 14 13 12 11 11
5 5 4 3 3 3 3 3 2 2 3 3 3 3 3 3 3 4 4 5 6 8 9 10 11 11 11 11 9 8 9 10 11 12 13 14 15 16 15 13 12 11 10 10
4 3 3 2 2 2 2 2 3 3 3 4 3 3 3 3 3 4 5 6 7 8 10 10 11 11 12 10 8 8 9 10 11 12 13 15 16 16 15 13 12 11 10 9
2 2 1 1 1 2 2 3 3 4 4 4 4 3 3 3 3 4 5 6 7 9 10 11 11 12 12 10 8 8 9 10 11 12 14 15 16 16 15 13 11 10 9 9
1 1 1 0 1 1 2 3 3 4 4 4 4 3 3 3 3 4 5 6 8 9 10 11 12 12 11 9 8 8 9 11 12 13 14 15 15 15 14 13 11 10 9 9
1 1 0 0 0 1 2 3 3 4 4 4 3 3 3 3 4 5 6 7 8 10 11 12 12 12 11 9 7 8 9 11 12 13 14 15 15 15 14 13 11 10 9 9
1 1 1 1 1 1 2 3 3 3 3 4 4 3 3 3 4 5 6 8 9 10 11 12 12 12 11 9 8 8 9 10 12 13 14 14 15 14 13 13 12 11 10 10
2 2 2 1 1 2 2 3 3 3 4 4 4 3 3 3 4 5 7 9 10 11 12 12 12 12 12 10 8 7 8 10 12 13 13 14 14 14 13 13 12 12 12 12
3 3 2 2 2 3 3 4 4 4 4 4 4 3 3 4 5 6 8 10 10 11 12 12 12 12 12 12 10 8 8 9 11 12 13 13 13 13 13 12 12 12 12 12
4 4 3 3 3 4 4 4 4 4 4 4 4 4 4 5 6 7 9 9 10 10 11 11 12 12 12 12 11 9 8 9 10 11 12 12 13 13 13 12 12 12 12 12
5 5 5 4 4 4 4 4 4 4 4 4 4 4 5 6 7 8 9 9 9 9 9 10 10 11 12 13 12 11 10 9 9 10 11 12 12 13 13 13 12 12 12 12
6 6 5 5 4 4 4 4 4 4 4 4 5 5 6 6 7 8 8 8 7 7 8 8 9 10 11 12 13 13 11 10 8 9 10 11 12 12 12 13 13 13 13 13
6 6 6 5 4 4 4 4 4 4 4 5 5 5 6 6 7 7 7 7 6 6 7 7 8 9 11 12 13 13 13 11 9 8 9 11 12 12 12 12 13 13 13 13